Wind_Speed
12 13 13 13 13 13 13 12 12 12 12 11 11 10 10 9 8 7 6 6 7 7 8 8 8 8 6 5 6 11 14 14 14 13 12 8 7 8 8 10 10 11 14 15 14 14 15 16 16 17 18 17 16 15 13 12 10 8 6 4 5 6 5 7 7 4 5 7 9 7 4 4 4 5 7 5 3 2 2 3 2 2 5 7 7 5 5 5
13 13 13 13 13 13 13 13 13 13 12 12 11 11 10 10 9 8 7 7 6 7 7 8 9 9 8 6 5 7 12 15 15 15 13 9 9 9 9 10 11 13 14 14 15 15 17 18 18 19 18 18 16 15 15 13 11 9 6 4 5 6 4 5 5 5 7 9 10 7 5 6 5 5 6 6 5 3 1 1 2 3 4 6 6 6 6 5
15 15 14 14 14 14 13 13 13 12 12 11 11 10 10 9 9 9 8 8 7 6 6 7 9 9 8 7 5 5 8 13 15 16 14 12 13 9 6 9 11 14 16 18 19 19 20 21 21 21 20 19 16 15 15 13 12 10 7 7 7 6 4 4 5 7 10 11 10 8 7 8 7 5 5 5 5 5 3 1 1 3 4 4 6 6 7 7
16 16 15 15 15 15 14 14 13 12 12 11 10 10 10 9 9 9 9 9 9 7 6 6 8 10 9 7 6 5 6 9 13 17 16 14 15 12 7 9 11 14 18 20 20 21 22 21 20 20 19 18 15 15 14 13 14 12 9 10 8 6 5 5 5 7 9 10 10 9 10 10 9 6 5 5 5 5 4 2 1 4 4 4 5 6 6 8
18 17 17 16 16 16 15 15 14 13 13 12 11 10 10 9 9 9 9 9 10 9 7 6 8 9 9 8 7 6 5 7 9 15 17 16 16 14 11 11 11 13 16 18 18 18 18 17 17 17 17 15 13 15 15 13 14 13 11 9 8 7 6 6 5 6 7 8 8 9 12 13 11 9 8 6 5 4 2 1 1 2 3 4 5 6 7 8
20 19 19 18 17 17 16 16 15 15 15 14 13 12 10 9 9 9 9 9 10 10 9 7 8 9 9 9 7 6 6 5 6 10 15 17 17 16 14 13 11 11 14 16 16 14 13 15 16 16 16 15 13 16 18 15 14 14 12 10 10 10 8 7 7 6 7 7 8 10 13 13 14 13 11 9 6 5 2 1 1 0 1 3 5 5 7 8
21 21 21 20 19 18 18 17 17 17 17 16 15 13 12 10 9 9 10 10 10 11 10 9 9 10 10 9 8 7 6 5 6 7 11 16 17 17 16 15 13 11 11 13 14 11 11 15 16 16 18 17 15 19 20 18 17 16 14 13 14 13 11 11 9 8 7 6 9 12 14 15 16 15 12 10 7 6 4 2 1 1 1 3 4 5 6 7
22 22 22 21 21 20 19 19 18 18 18 18 17 15 13 11 11 11 10 10 10 11 11 10 10 11 11 10 9 8 6 5 6 6 9 13 16 17 17 16 14 12 11 12 14 13 13 17 19 19 19 17 18 21 20 19 19 18 16 16 17 16 15 14 10 8 7 5 9 13 14 15 16 14 13 11 8 8 8 6 5 3 3 4 4 4 5 5
22 22 22 22 22 21 21 21 20 20 20 20 18 16 15 13 13 13 12 11 10 11 12 11 11 12 12 12 11 9 7 6 6 5 7 9 13 16 17 17 16 14 13 13 15 15 16 20 21 21 20 20 22 21 20 20 20 20 20 19 19 18 16 14 9 5 5 4 8 12 13 14 14 14 15 13 10 9 8 7 6 6 6 6 4 5 5 5
21 21 22 22 22 22 22 22 22 22 22 21 20 17 16 15 16 15 14 12 11 11 12 12 11 12 13 13 14 9 7 9 7 4 6 7 10 14 17 17 17 16 14 14 15 15 17 22 24 24 24 24 24 22 21 21 22 23 22 20 19 17 15 12 8 4 2 1 4 9 11 12 13 14 16 15 12 10 9 7 6 6 7 7 5 6 6 6
21 21 22 22 22 22 22 22 22 23 24 23 21 19 18 18 18 17 15 14 12 13 12 12 11 13 13 15 15 9 8 12 9 6 6 8 10 12 15 17 17 17 16 14 14 16 19 24 27 28 27 27 25 23 22 23 24 24 21 19 18 16 13 12 9 7 5 5 3 6 8 10 13 14 16 17 13 11 11 9 7 6 6 6 5 6 6 6
22 22 22 22 22 22 22 22 22 24 25 25 23 21 20 20 20 18 17 15 14 14 13 11 12 13 14 16 14 8 10 13 12 10 9 8 10 10 13 16 17 18 17 16 16 18 21 25 29 28 26 26 27 26 25 26 27 25 21 19 18 16 13 12 11 10 10 9 6 2 6 10 13 13 16 18 16 13 13 12 10 8 7 6 5 6 6 6
24 24 23 23 23 23 22 22 22 23 25 25 24 22 21 21 21 20 19 17 15 15 14 13 13 13 15 17 12 8 12 14 14 15 10 7 9 10 12 15 17 18 18 18 18 20 23 26 27 27 27 27 27 26 26 27 28 26 23 20 19 16 13 12 13 11 11 11 9 2 8 12 13 14 17 19 17 15 14 14 13 11 8 7 5 5 7 7
25 25 25 25 24 24 23 23 23 24 25 25 23 22 21 22 22 21 20 19 17 16 16 16 15 15 16 16 10 8 13 17 18 16 11 8 9 11 11 13 16 18 19 20 20 21 23 25 26 27 29 28 27 27 27 29 29 27 23 21 19 15 12 13 13 11 12 14 13 5 11 14 13 15 17 18 18 16 15 15 15 14 10 8 6 5 6 7
28 27 27 27 26 26 25 24 23 25 26 25 24 22 22 22 21 21 21 20 19 18 17 17 17 17 18 17 11 10 14 18 19 14 11 11 11 12 12 12 14 16 20 22 22 23 24 25 25 25 27 28 28 27 27 28 29 27 23 21 18 14 14 14 13 12 15 15 12 6 15 16 14 15 15 17 18 17 15 14 15 14 12 9 7 5 5 6
31 30 30 29 29 29 28 26 25 26 27 25 24 23 23 23 22 22 21 21 19 19 18 18 18 18 20 20 14 13 16 18 16 12 12 15 15 15 13 12 12 13 17 21 23 24 25 25 25 25 26 28 27 25 26 28 28 25 22 21 18 16 17 16 14 15 16 15 10 10 17 18 16 15 15 16 18 17 15 14 14 14 13 10 7 6 5 4
34 34 33 33 32 32 31 30 29 29 29 28 26 25 25 24 24 23 22 22 20 20 20 19 19 19 20 22 18 16 17 17 16 13 15 18 19 17 14 13 13 14 16 18 21 23 24 24 24 25 26 26 26 26 24 21 22 22 19 19 19 18 19 17 16 17 18 16 12 15 19 18 17 16 15 16 16 16 14 13 13 14 14 12 8 6 5 4
37 37 36 36 35 35 34 33 32 32 32 31 29 28 27 26 25 24 23 22 21 22 22 20 21 19 20 23 21 18 18 18 18 16 17 19 19 17 16 17 16 16 16 15 16 19 21 23 24 25 26 27 25 23 16 9 13 20 19 18 21 21 19 17 18 19 19 19 16 17 18 17 17 16 16 15 15 14 13 12 12 14 15 12 8 6 6 5
39 39 39 38 38 38 36 35 35 35 35 34 32 31 31 29 27 26 24 22 22 23 23 22 21 20 21 24 23 21 19 19 19 17 17 19 18 16 18 19 18 18 17 14 14 15 17 20 22 23 23 24 22 20 15 9 13 20 20 20 22 23 20 18 19 20 22 22 19 18 18 17 17 16 15 14 13 13 12 11 11 12 14 13 9 6 6 6
41 41 41 41 41 40 39 37 37 37 37 37 36 34 34 33 31 29 27 25 24 23 23 22 22 21 22 25 26 24 21 20 19 19 19 20 19 16 17 18 18 18 16 15 14 15 17 18 17 16 17 19 21 21 20 18 18 20 21 21 22 23 22 20 20 21 24 24 20 19 20 18 17 17 15 13 13 13 12 10 8 8 10 12 9 5 5 6
43 42 42 43 43 42 42 40 39 38 38 39 39 38 37 36 35 33 30 29 27 26 24 23 23 20 22 28 28 27 26 21 20 21 21 21 22 18 16 17 16 15 15 18 18 17 16 9 5 9 14 19 22 23 22 21 22 23 23 22 22 25 24 22 21 20 24 25 22 20 20 18 16 16 16 15 14 12 10 9 6 4 6 9 9 5 4 6
45 45 44 44 44 44 44 43 42 41 40 40 40 40 39 39 38 37 34 31 30 30 26 25 24 19 22 30 30 30 28 21 20 23 22 22 22 19 18 17 16 15 18 22 20 18 13 5 2 7 12 18 22 23 23 22 24 26 26 23 23 25 26 26 23 20 24 28 25 24 22 20 18 18 19 17 15 12 11 9 6 4 4 5 9 6 3 4
47 47 47 46 46 46 46 46 44 43 43 43 42 42 41 41 41 40 39 34 31 33 31 29 28 22 24 31 33 32 26 20 23 25 23 22 21 21 21 18 18 19 22 22 19 18 13 8 8 10 12 17 20 23 25 25 26 28 29 27 21 22 27 28 25 23 26 29 28 28 26 23 21 20 20 18 15 14 14 13 12 9 6 2 6 7 3 2
49 49 49 48 48 48 48 47 47 46 46 46 45 44 43 43 43 42 42 39 32 32 35 34 31 27 27 33 37 33 22 20 26 26 25 23 22 24 23 20 20 22 22 20 20 20 17 13 13 15 16 17 20 23 26 28 27 27 31 29 21 21 26 27 26 27 30 31 28 28 29 26 23 21 20 18 16 16 16 16 16 13 7 1 3 6 4 3
52 51 51 50 50 50 50 50 49 48 48 48 47 46 46 45 46 44 44 43 37 32 35 39 36 31 31 34 37 33 25 22 24 27 28 25 25 26 25 25 24 21 20 21 22 21 18 18 18 19 19 19 21 23 25 26 26 27 28 26 23 25 27 28 28 28 31 31 28 28 30 27 25 23 22 20 18 18 16 16 16 15 9 4 0 5 6 4
54 53 53 52 51 50 51 52 52 51 50 50 50 49 48 48 48 47 46 46 42 35 35 40 40 37 35 36 36 34 31 22 22 31 31 26 27 29 29 29 24 21 21 23 24 20 18 20 21 22 22 21 21 20 21 23 25 25 23 24 27 29 28 29 30 31 33 32 30 31 31 26 26 26 23 21 20 19 19 19 18 17 14 7 3 3 7 5
55 55 55 55 54 52 51 52 53 54 53 53 52 51 51 50 49 49 48 48 46 39 37 40 42 41 39 39 37 37 34 25 26 36 31 25 29 31 31 30 25 23 23 25 22 15 15 20 22 22 22 22 20 16 17 20 20 16 18 26 29 29 30 31 33 35 34 34 35 34 32 28 24 24 24 23 22 22 22 22 21 20 17 11 7 3 5 7
55 55 56 56 56 55 53 51 53 55 56 55 55 53 53 52 51 51 50 51 49 44 40 40 44 45 43 42 40 39 36 31 32 37 32 28 32 33 33 30 26 25 26 27 20 13 15 20 21 21 24 24 20 16 16 17 14 12 20 27 28 29 32 33 36 37 35 38 38 34 34 31 21 21 25 25 24 23 22 22 23 22 18 13 10 7 2 7
55 56 56 56 56 56 55 53 52 54 56 57 57 56 55 55 54 53 53 52 51 47 43 42 44 46 45 44 43 42 39 35 36 39 36 34 34 34 33 30 29 30 31 29 24 21 23 24 24 24 25 24 22 20 19 17 14 15 22 27 28 31 33 36 38 36 38 41 38 33 35 34 20 19 26 25 22 20 20 22 24 23 19 16 13 10 5 4
56 56 57 57 56 56 56 56 54 54 55 56 58 58 58 58 56 56 56 54 51 49 47 44 44 46 47 45 44 44 42 38 38 39 39 37 36 36 35 33 34 35 34 32 29 27 27 28 28 24 22 22 23 24 23 21 19 21 25 29 32 32 35 40 39 39 43 40 33 31 37 37 24 18 25 22 16 17 20 23 25 24 21 19 16 12 8 3
57 57 57 58 57 57 56 56 56 56 55 55 57 59 59 60 59 59 57 53 51 52 50 48 46 46 47 46 44 44 43 40 39 40 41 39 39 40 37 36 37 37 37 35 31 29 30 32 28 22 21 22 22 23 24 24 25 27 29 32 35 35 37 42 41 43 40 29 26 30 37 39 23 12 18 17 13 17 21 23 25 24 23 21 18 14 10 5
59 59 59 59 58 59 58 56 56 57 58 56 57 59 59 61 62 61 58 54 53 54 53 51 48 47 47 47 44 43 42 42 41 41 42 41 40 40 37 35 35 35 35 30 26 28 30 30 28 25 23 22 21 22 23 25 26 28 31 33 35 36 38 41 41 39 30 23 23 28 35 34 16 8 11 12 12 15 19 22 24 25 25 24 22 19 15 11
60 60 60 60 60 60 60 58 57 57 59 59 58 59 60 62 63 62 59 57 57 57 56 54 51 48 47 47 46 43 42 43 43 43 43 42 41 40 38 36 35 35 33 27 26 29 29 29 30 28 24 23 22 21 21 23 25 27 29 31 32 33 36 37 35 32 27 25 26 27 35 32 14 7 9 10 12 13 17 21 21 22 24 24 24 21 18 16
62 62 61 61 61 62 62 61 60 59 59 60 60 60 62 63 63 62 61 60 59 59 58 57 55 52 49 48 47 46 43 43 45 46 46 44 43 42 42 40 39 39 35 32 33 33 31 32 31 27 23 23 23 20 20 23 25 25 27 31 33 32 33 32 31 30 28 28 29 29 34 27 14 9 8 10 14 13 16 18 18 20 21 21 23 23 21 20
65 64 63 62 62 63 64 64 64 62 61 61 62 63 63 62 62 62 62 61 61 60 59 58 57 55 53 51 49 48 46 44 44 47 48 48 45 42 41 40 40 40 38 37 36 35 35 33 28 28 28 27 25 23 24 28 28 27 29 32 30 27 29 33 34 34 33 34 34 31 29 22 17 16 14 14 16 15 16 17 17 19 19 19 21 23 23 21
67 67 66 64 63 63 64 65 65 65 64 63 64 65 63 62 63 64 63 61 61 61 60 59 58 57 56 54 52 50 49 47 46 46 48 49 48 44 42 41 41 41 40 39 38 37 37 31 27 31 33 29 28 28 31 32 30 31 33 30 23 23 29 34 35 36 38 40 37 32 29 22 20 21 16 14 16 18 18 16 16 18 18 20 21 21 21 19
71 70 69 66 65 65 65 66 66 67 67 66 66 66 64 64 65 65 65 64 63 62 62 60 60 60 59 58 56 53 52 51 50 49 49 50 51 49 47 46 46 46 45 44 43 42 41 34 31 34 32 28 29 32 35 35 34 36 32 25 25 30 33 35 36 36 40 42 36 30 28 24 22 20 16 14 14 17 19 17 17 17 18 19 19 19 20 18
74 73 72 70 68 67 67 67 67 67 68 68 67 66 67 67 65 66 67 67 66 64 63 62 62 62 62 61 60 57 55 54 53 52 52 53 54 54 52 51 51 52 50 50 48 46 45 41 39 37 33 31 33 37 39 39 38 36 30 28 33 37 35 36 37 35 37 39 32 26 25 24 19 14 12 14 13 14 18 18 18 17 18 18 16 16 17 18
75 75 75 74 71 69 69 68 68 68 69 69 67 67 68 68 67 67 69 70 69 67 66 65 65 64 64 63 62 60 58 56 56 56 55 56 57 56 55 54 54 54 53 52 50 48 48 47 44 40 37 37 40 43 43 40 37 35 33 35 38 37 35 37 38 35 35 35 31 26 22 16 12 12 12 12 12 14 17 18 18 18 17 17 16 15 15 16
71 71 73 75 73 70 70 69 68 69 69 69 69 68 69 69 69 70 71 72 72 71 69 68 67 67 66 65 64 63 61 59 59 59 59 59 60 59 58 57 55 55 55 53 52 50 48 49 47 43 42 44 47 48 44 39 37 36 37 38 37 38 38 38 39 37 35 34 31 28 19 6 4 10 13 12 12 13 15 17 19 19 19 19 17 16 15 14
61 63 67 71 70 68 68 68 67 68 69 69 69 69 68 70 71 72 73 74 74 74 73 72 70 69 68 68 67 66 65 63 62 62 62 62 62 62 61 59 58 57 56 55 54 52 51 52 51 47 47 49 50 47 42 38 38 39 39 38 37 38 39 40 40 37 34 33 30 29 25 11 7 10 12 14 14 12 13 15 17 18 20 20 18 17 16 15
53 55 59 62 62 62 62 62 63 65 66 68 69 68 68 68 69 70 72 74 76 77 76 75 74 72 71 70 70 68 67 66 65 64 65 65 65 64 63 62 60 59 58 57 56 55 54 56 54 50 50 51 49 46 43 41 41 42 43 41 39 41 42 42 40 34 33 34 30 32 30 17 11 13 14 15 15 14 14 15 16 18 19 20 19 20 19 18
47 48 52 54 55 55 54 54 57 59 59 63 66 67 67 67 68 69 70 72 75 77 78 78 77 76 74 73 72 71 70 69 68 67 67 67 67 67 66 65 63 61 61 60 58 58 57 57 56 52 51 51 50 49 48 47 46 48 48 44 44 45 44 42 38 34 37 38 34 35 33 18 12 13 15 16 17 17 15 14 15 17 19 21 22 22 21 20
42 41 43 46 47 48 47 46 48 51 52 54 58 61 63 65 66 67 68 70 74 76 78 79 80 79 78 77 74 73 72 71 70 70 70 70 69 69 69 68 66 64 63 62 61 60 60 60 59 56 54 53 53 53 54 53 53 54 52 48 47 45 43 42 40 39 42 41 37 37 34 22 15 15 17 19 19 18 17 15 15 16 19 21 22 23 23 23
36 34 35 38 40 41 41 38 38 41 44 46 49 53 57 60 63 65 66 69 72 75 77 79 81 81 80 79 77 75 74 74 73 72 72 72 72 71 71 70 69 67 65 65 64 63 63 62 62 60 57 57 56 56 57 57 56 56 55 52 49 46 45 44 42 44 46 42 39 39 34 24 18 18 19 20 20 19 18 17 17 16 17 20 21 23 24 24
32 30 29 32 34 34 34 32 30 31 34 37 41 46 50 54 58 61 63 66 69 72 75 78 81 82 82 81 80 79 77 76 75 75 75 74 74 73 73 72 71 69 68 67 66 66 65 64 64 63 60 59 58 57 58 58 58 58 57 54 52 49 47 45 46 49 47 42 41 39 33 29 24 20 19 21 22 21 20 19 19 18 17 19 21 23 25 25
30 29 28 27 28 28 29 28 25 24 26 30 35 41 46 50 52 53 55 60 64 67 71 76 79 80 82 83 82 81 80 79 78 77 77 77 76 75 75 74 73 72 71 70 69 68 67 66 66 65 63 61 60 58 59 59 59 60 58 56 54 51 49 49 51 51 46 45 44 36 30 31 29 22 21 21 21 21 20 20 20 20 19 20 21 22 24 26
28 28 27 26 24 24 24 23 21 20 21 23 27 33 41 47 50 49 46 48 53 59 64 70 76 78 81 83 83 82 81 80 80 80 80 80 79 77 76 76 75 74 73 72 71 70 70 68 68 68 66 64 62 61 60 59 60 60 59 57 55 53 51 51 52 49 47 48 43 32 30 34 31 26 22 20 21 22 21 22 23 23 22 20 21 22 23 24
26 25 25 25 24 22 21 19 18 19 19 18 20 24 32 40 45 47 46 41 41 48 55 61 68 73 77 80 81 81 81 81 81 81 82 81 81 80 79 78 78 77 76 75 74 73 72 71 70 70 69 66 65 64 62 61 61 60 59 58 57 55 53 52 52 49 48 49 43 36 37 38 33 29 24 21 23 25 25 26 27 26 24 22 22 23 23 23
24 23 21 22 22 21 19 18 17 17 17 16 17 18 21 28 34 41 46 44 40 41 47 53 58 63 69 76 78 77 79 81 82 82 82 83 83 82 81 81 80 79 78 78 77 76 74 73 72 72 71 69 67 67 65 63 63 62 60 59 58 56 55 54 54 53 51 51 46 41 43 41 34 29 26 23 24 27 28 29 30 29 27 25 25 25 25 25
22 21 19 20 20 19 18 17 16 16 16 16 16 15 15 18 23 28 36 43 44 44 45 49 53 54 57 65 71 74 77 80 81 82 83 84 85 85 84 83 82 82 81 80 80 79 77 76 75 74 74 71 69 69 68 66 65 64 61 59 58 58 58 57 56 56 55 53 48 46 47 43 33 27 26 25 25 27 28 30 31 31 30 29 28 28 28 28
21 20 19 19 20 19 18 17 16 15 15 14 14 14 14 15 16 19 25 32 38 44 47 50 54 54 52 54 60 68 75 78 79 81 82 84 86 87 86 85 84 83 83 82 82 81 80 79 77 77 76 74 71 71 70 68 67 65 61 60 60 59 59 58 58 57 56 54 52 51 49 40 30 28 29 28 28 29 29 30 31 32 33 33 31 29 30 29
Wind_Direction
296 296 296 296 296 295 295 296 296 297 298 300 301 303 304 306 308 311 316 316 314 309 303 298 296 292 291 289 263 250 243 241 243 240 236 236 238 226 205 196 189 187 192 192 192 193 199 207 206 202 202 205 213 216 217 217 221 228 212 179 134 129 127 98 78 84 97 70 53 38 41 62 66 79 77 76 83 107 136 130 134 159 155 143 138 139 147 176
295 294 293 293 292 292 292 291 292 292 294 296 297 298 300 301 299 299 300 303 305 306 306 301 295 291 288 288 276 255 243 239 239 242 240 231 235 231 216 206 190 188 190 189 193 194 198 207 209 208 208 210 216 215 214 215 219 220 208 185 150 143 154 118 93 99 91 71 65 56 48 51 51 62 59 58 66 80 118 168 173 193 186 164 156 159 154 165
294 293 291 291 290 290 289 289 289 290 292 293 295 297 297 297 296 292 289 289 291 294 299 300 294 290 289 287 278 263 247 241 239 243 242 229 234 237 223 216 201 192 188 190 195 197 200 204 203 206 210 214 218 214 210 213 214 207 197 193 171 156 168 147 124 118 98 87 88 79 67 57 51 56 55 48 46 52 55 59 205 218 212 194 176 173 167 167
289 289 289 288 287 287 287 286 286 287 289 291 293 295 296 296 294 289 284 280 280 281 284 290 291 290 291 290 281 269 254 244 237 240 241 231 234 238 226 218 213 202 195 199 202 203 206 203 199 204 208 211 216 212 207 209 205 197 196 196 179 167 171 156 138 124 104 100 106 94 79 68 59 54 47 40 37 37 35 48 209 233 229 219 193 184 187 180
284 284 284 284 284 283 283 283 283 283 285 288 289 290 292 293 293 290 284 278 275 274 273 275 282 286 289 290 288 278 262 254 239 238 240 235 236 238 230 222 219 213 206 209 214 215 212 202 197 202 205 208 212 208 205 204 200 198 199 191 177 183 190 169 148 134 113 100 105 102 91 81 71 60 45 34 32 38 30 65 134 238 232 233 219 199 196 192
282 281 279 279 279 278 279 278 279 280 281 284 285 285 286 288 290 287 283 279 274 271 268 266 270 277 284 288 292 288 273 263 245 237 238 236 236 236 232 230 229 224 215 215 221 224 212 195 193 197 201 204 204 206 206 201 198 198 196 190 186 195 204 186 166 159 142 107 95 101 103 95 81 68 54 39 37 56 76 135 131 244 249 255 256 231 205 199
282 281 279 277 276 275 274 274 274 275 277 280 281 282 282 283 284 281 278 275 272 270 267 261 262 267 274 281 288 288 279 260 245 234 234 234 235 234 233 233 234 235 224 214 219 225 200 184 186 193 199 200 202 207 205 200 200 200 196 194 191 196 206 199 189 180 164 123 100 105 110 103 90 80 66 48 36 43 43 40 50 334 313 276 270 253 222 206
283 281 280 278 276 274 273 271 271 271 273 274 276 278 279 280 278 275 272 268 268 268 266 261 258 261 265 272 277 278 277 267 253 238 232 233 233 232 232 233 232 233 229 212 209 214 194 180 185 193 195 198 207 209 203 201 204 205 203 197 192 199 211 211 201 183 170 138 114 115 116 109 99 94 81 62 40 32 25 14 0 334 308 278 249 234 228 213
284 283 280 279 277 275 273 272 270 269 269 269 270 272 275 278 276 272 268 265 264 263 264 261 256 257 260 264 266 268 278 273 260 242 235 234 233 230 228 230 231 227 225 215 205 203 191 183 188 193 191 197 210 209 204 205 205 208 209 204 201 208 218 221 214 187 164 143 125 125 122 116 109 104 93 75 55 42 33 23 0 331 310 288 239 212 214 212
286 285 282 281 278 276 274 272 271 270 269 268 267 268 270 272 272 271 268 265 262 260 259 258 257 256 257 260 258 262 277 270 259 240 235 232 230 229 225 224 227 226 222 220 211 200 192 190 193 194 193 197 207 207 205 206 206 212 216 210 210 218 225 229 238 244 195 175 146 133 126 123 115 107 100 83 63 49 41 39 25 352 326 301 256 219 216 212
287 286 285 283 281 279 276 273 272 270 269 267 266 266 267 267 266 267 266 262 258 257 257 257 256 255 256 257 254 259 272 267 263 244 227 227 228 226 225 222 222 224 220 219 214 204 199 199 201 200 197 199 205 205 204 206 210 217 221 216 214 223 232 239 253 271 286 290 243 140 125 124 115 106 100 87 69 51 37 36 37 18 349 316 267 239 233 224
287 286 286 284 283 281 278 276 273 271 269 267 267 267 266 265 263 262 262 258 253 253 255 255 254 254 256 256 254 260 264 262 264 253 231 225 234 229 224 222 222 223 219 216 212 207 205 205 209 207 201 204 207 205 203 207 216 222 224 220 217 222 230 242 255 273 292 292 277 155 128 127 116 107 99 88 77 60 40 29 27 22 6 338 281 254 250 239
286 286 285 283 282 281 279 278 275 272 270 268 268 267 265 264 263 262 259 256 251 249 250 250 249 251 255 259 257 250 256 260 256 251 244 232 237 236 228 222 221 224 222 217 213 211 209 210 213 208 206 211 210 209 206 209 220 225 224 220 220 224 223 234 251 271 289 289 286 255 139 138 126 110 99 90 81 66 49 32 22 19 13 351 311 271 261 250
284 284 283 282 281 279 278 277 276 273 271 270 270 268 265 263 262 261 260 257 252 247 247 246 246 247 252 259 256 236 246 253 250 248 253 248 238 238 236 228 222 222 223 221 217 216 216 217 216 210 212 215 214 215 211 213 222 226 224 220 223 224 217 228 246 271 287 285 283 248 148 146 133 111 100 93 83 69 53 37 25 17 14 2 332 296 272 266
282 282 281 281 280 278 277 276 275 274 272 271 271 269 266 263 261 261 259 257 254 249 247 245 245 246 249 254 248 233 240 248 252 253 258 255 245 239 235 233 229 224 224 223 221 220 220 223 223 219 218 216 218 221 216 216 224 228 225 220 222 220 212 224 243 266 278 275 270 207 152 145 131 113 104 95 86 74 57 40 28 16 14 11 345 317 292 284
280 280 279 279 278 277 276 274 274 273 272 272 271 269 267 264 262 260 259 257 254 250 247 245 245 245 248 253 247 234 239 250 257 256 254 250 246 244 240 238 238 233 231 229 227 226 224 226 226 225 221 218 222 225 221 221 224 227 225 219 219 217 214 226 244 256 262 259 244 180 154 143 129 117 109 100 90 80 65 45 31 18 11 12 358 328 307 293
278 278 278 277 276 275 274 273 272 272 272 272 271 269 266 264 262 260 258 256 254 251 247 244 244 242 246 252 250 240 239 249 256 252 246 246 245 246 245 240 238 237 235 233 233 232 232 231 229 228 227 226 225 225 226 227 226 228 226 219 217 216 219 231 244 249 252 249 224 177 158 144 132 122 116 108 96 85 73 56 37 20 8 7 4 335 311 295
276 276 276 276 276 274 273 272 271 270 270 270 269 268 266 263 261 259 257 256 254 251 248 245 244 244 247 252 251 245 241 242 248 248 245 248 247 245 243 240 238 239 239 239 239 238 238 237 234 232 231 232 230 231 237 237 227 229 228 222 218 217 218 223 233 242 243 239 218 181 163 148 136 127 121 113 99 89 80 67 47 24 5 357 360 341 311 294
274 274 274 274 274 273 272 271 270 269 268 268 266 266 266 263 260 258 256 255 253 251 249 247 247 245 246 251 252 247 242 241 245 246 246 251 250 245 245 245 245 244 244 244 245 244 243 240 238 235 235 239 241 245 247 232 222 227 228 225 220 217 212 207 221 235 236 233 216 185 170 159 147 136 128 121 108 99 91 76 56 29 5 347 346 344 311 298
272 272 271 272 272 272 271 270 269 268 267 267 265 263 263 263 261 259 257 255 251 251 251 248 247 246 246 248 250 249 244 241 243 242 243 251 254 247 244 248 249 249 249 247 244 242 241 242 243 242 243 246 246 245 242 231 222 224 226 223 220 216 206 201 216 232 236 230 215 194 181 172 159 148 144 139 124 110 101 87 65 33 7 341 332 344 314 304
271 270 269 270 269 270 270 269 268 267 266 266 266 263 260 260 260 258 257 256 253 250 248 249 246 244 248 249 247 248 245 237 238 241 241 247 254 249 242 244 246 248 250 246 240 237 236 240 254 244 239 241 241 240 238 232 224 222 223 218 215 211 200 200 213 229 237 229 219 210 194 182 175 165 160 150 133 119 113 104 87 49 17 341 319 324 316 310
270 269 268 268 268 267 267 268 267 266 266 265 265 264 262 259 258 257 255 253 255 252 245 246 247 238 244 251 248 246 246 241 239 242 240 242 249 251 244 239 239 239 242 242 241 240 233 221 239 233 229 232 234 234 232 229 224 222 221 216 213 208 199 201 210 223 235 229 223 223 209 193 192 185 169 157 146 142 141 134 129 112 57 351 319 313 299 298
270 269 268 267 267 266 265 265 265 265 265 264 263 263 263 261 258 257 255 250 251 255 252 244 243 237 240 251 252 247 246 244 241 240 238 239 244 248 245 239 235 234 237 242 247 246 235 223 229 228 222 224 227 228 227 225 221 219 221 220 213 207 204 205 210 218 228 229 225 226 220 205 200 194 174 164 165 167 163 154 146 128 101 31 326 315 271 243
271 269 268 267 266 266 265 264 263 263 263 263 262 262 262 261 260 258 257 253 245 249 257 252 242 235 237 247 253 252 244 239 243 243 239 238 237 242 245 240 234 233 235 240 244 244 237 227 224 226 223 220 220 223 224 224 222 218 220 222 213 210 212 206 210 219 224 227 227 229 229 216 208 200 182 181 184 176 167 154 141 126 117 131 320 309 265 212
271 270 269 267 266 265 264 263 262 261 261 261 261 260 260 260 260 259 257 256 247 240 250 256 250 239 234 241 251 256 247 235 242 245 240 236 235 238 241 238 236 236 236 238 241 241 238 232 227 228 228 225 223 222 224 226 225 222 223 224 215 213 215 207 209 221 225 226 228 233 235 224 215 206 191 194 191 175 170 157 142 136 138 148 224 294 268 212
271 270 269 268 266 265 264 263 262 260 259 259 259 259 259 258 259 259 258 257 252 242 241 249 254 249 240 239 243 249 248 235 235 242 237 231 233 234 235 238 238 236 234 235 237 236 235 235 231 230 230 230 230 230 229 229 228 227 224 223 219 214 214 211 210 220 227 226 225 232 237 230 220 211 201 201 194 183 179 164 151 147 142 137 139 262 266 229
273 270 269 268 266 265 265 263 261 260 259 258 258 257 258 258 257 258 259 258 255 249 242 242 248 249 246 244 242 244 245 237 235 243 240 230 233 235 235 238 238 234 234 236 237 234 235 238 235 234 234 234 234 234 237 237 235 229 217 220 223 216 212 213 212 220 227 227 225 227 235 237 222 209 210 210 201 194 184 166 155 150 141 139 142 154 258 246
276 272 270 269 266 265 264 264 262 260 259 258 257 256 256 256 256 256 257 257 256 253 247 241 244 246 246 246 245 244 243 236 235 242 240 230 231 233 234 236 236 233 233 234 233 226 229 235 235 234 234 233 231 229 233 236 230 213 209 217 223 218 213 213 215 220 225 229 230 227 234 243 226 204 216 219 208 199 184 168 158 150 142 142 144 138 197 250
278 275 273 271 268 266 264 264 262 261 260 258 256 255 254 254 254 254 255 255 255 255 251 245 243 246 246 245 245 246 244 238 235 239 239 234 231 233 233 233 232 230 230 230 225 219 221 227 229 229 230 228 222 220 221 219 210 201 207 213 217 217 214 215 218 219 223 232 237 229 231 245 236 203 214 218 207 199 184 171 162 153 149 148 148 145 152 232
278 276 274 272 270 268 266 265 264 262 260 259 257 255 254 253 252 252 252 252 254 255 253 249 245 245 246 245 243 244 245 242 238 238 239 237 234 233 231 229 230 230 229 228 223 218 220 225 229 229 231 229 223 222 219 213 204 196 202 210 214 215 212 215 219 219 225 239 246 230 227 242 243 208 211 214 199 196 190 178 170 163 157 151 150 147 144 186
275 274 274 273 271 269 268 266 265 264 261 259 257 255 254 253 251 250 250 251 253 253 252 250 246 244 246 247 244 242 243 243 241 240 239 238 236 235 233 230 232 232 232 232 227 221 220 225 231 233 231 229 226 225 222 220 211 199 202 211 215 215 213 215 219 221 231 253 256 232 227 240 240 191 205 214 192 197 197 186 177 169 160 155 153 151 151 165
272 271 271 271 271 269 267 266 264 264 263 261 258 256 254 253 251 249 248 249 250 250 250 250 247 245 245 247 246 242 240 241 241 241 241 239 238 239 239 238 238 238 238 239 234 229 228 228 231 232 228 226 225 224 223 225 223 213 211 217 219 219 218 220 224 230 246 272 263 237 231 239 235 164 198 210 188 191 193 191 187 176 168 165 162 159 162 170
272 269 268 267 267 267 266 264 262 261 262 261 260 257 255 253 250 248 248 248 248 247 249 249 248 246 244 245 246 243 240 238 238 239 240 238 237 236 235 234 234 235 235 233 228 228 229 228 229 230 226 225 225 224 225 230 232 228 227 229 230 230 230 233 238 245 258 269 264 244 233 239 245 207 209 208 196 188 183 190 196 190 182 175 169 166 169 174
274 270 267 265 263 263 263 262 260 258 258 258 258 257 255 253 251 249 248 247 246 245 246 248 247 246 244 242 243 244 241 237 236 237 239 239 236 235 234 231 230 230 228 224 221 221 222 222 225 227 227 229 230 228 230 234 234 234 234 235 237 240 243 247 250 254 259 262 263 252 240 247 266 253 238 231 221 208 193 192 199 203 197 184 175 172 177 183
276 273 269 265 262 260 259 259 258 256 254 254 254 255 255 254 252 251 249 248 246 245 244 245 246 246 244 242 241 242 242 239 236 236 238 239 238 235 235 235 233 231 230 227 225 224 224 222 220 222 223 224 225 224 226 230 230 230 229 230 236 243 247 247 246 248 253 256 258 258 254 263 277 267 258 245 234 228 216 204 203 207 204 197 190 185 186 190
278 275 271 267 264 261 258 256 255 254 253 251 251 252 254 254 253 252 251 249 247 245 244 243 244 245 244 242 240 239 240 240 237 235 235 238 238 234 231 232 232 231 229 228 228 228 229 224 219 225 226 222 220 219 222 225 226 228 229 229 235 241 241 242 242 242 247 251 253 257 259 261 262 258 254 245 237 235 232 220 209 205 203 206 207 201 198 194
280 277 274 270 266 264 260 257 255 253 253 251 249 250 250 250 250 251 251 249 247 245 243 242 241 242 242 242 239 236 237 238 237 235 234 235 236 234 230 228 228 227 226 226 226 227 228 221 217 224 226 221 220 221 222 222 221 225 227 225 231 233 232 236 237 235 238 245 249 251 254 256 254 253 252 248 240 236 238 236 222 213 209 210 212 213 210 206
281 278 275 271 268 265 263 259 256 254 252 251 249 247 247 246 246 247 248 248 247 244 243 241 240 239 240 240 239 236 234 235 236 236 234 234 235 235 233 230 229 229 228 228 227 226 227 222 216 219 220 218 220 222 223 222 221 224 222 219 226 230 231 235 238 236 236 243 250 252 255 257 256 258 258 252 246 240 241 243 238 230 222 216 214 218 219 220
282 279 276 272 269 267 263 260 257 255 252 251 249 246 244 243 242 242 243 245 245 244 242 241 239 238 238 238 238 236 234 232 233 234 234 234 234 234 234 233 232 232 232 231 230 228 228 226 221 218 218 219 222 224 223 222 223 224 222 221 225 230 232 236 241 242 241 246 253 256 257 257 255 263 266 257 251 248 245 246 247 244 235 226 221 223 227 231
284 281 277 273 270 268 265 261 258 256 253 251 248 246 243 242 240 239 239 241 243 243 242 240 239 237 236 236 237 236 234 232 231 232 233 234 234 234 234 233 233 233 234 234 233 231 231 232 228 221 219 222 225 227 226 224 225 226 227 228 230 233 235 235 239 242 243 245 250 253 250 230 216 250 258 258 251 246 246 247 248 249 244 236 229 224 230 234
287 285 280 275 273 271 267 263 259 256 253 251 248 246 244 241 239 238 238 238 240 241 241 240 238 237 236 235 235 235 234 232 230 230 231 233 234 234 234 233 233 233 234 234 235 234 233 234 232 225 223 225 228 230 229 227 227 228 229 230 232 236 238 239 241 244 247 250 254 257 256 246 227 233 235 242 241 230 232 236 237 243 244 239 235 231 233 230
293 290 285 280 277 275 271 266 262 257 254 251 248 245 243 241 239 237 237 236 236 237 238 238 237 236 235 234 233 233 233 232 229 228 229 231 233 234 234 233 232 233 233 234 234 234 234 235 234 229 227 229 229 229 228 227 227 228 228 227 227 232 235 239 242 245 252 254 255 259 258 245 226 230 226 230 234 226 225 225 223 229 232 230 232 235 236 226
298 295 292 288 284 281 276 271 265 260 255 251 248 245 243 240 238 236 235 234 234 234 235 236 236 235 234 233 232 232 231 231 229 228 228 229 231 232 233 233 232 232 233 233 233 234 234 235 236 232 230 230 229 228 227 226 226 228 228 225 225 228 232 236 240 241 246 248 248 252 251 232 213 228 227 227 232 232 229 225 222 223 222 221 224 230 235 226
300 298 296 295 293 290 286 278 270 263 258 252 248 245 242 239 237 234 233 232 232 232 232 233 233 233 233 232 230 230 230 229 229 228 227 228 229 231 232 233 232 231 231 232 232 233 233 234 235 232 229 228 226 226 227 226 226 229 230 228 227 228 230 234 235 235 238 240 240 244 245 232 215 219 223 225 228 230 231 227 224 223 223 225 223 225 231 227
303 300 300 301 301 300 296 288 277 267 260 253 246 242 240 238 236 233 231 230 230 230 230 231 231 231 231 231 230 228 228 228 228 227 227 227 228 229 231 232 232 231 230 231 231 232 233 234 235 233 231 229 227 226 228 228 229 232 232 231 230 229 229 232 236 238 239 239 238 242 246 243 227 215 219 226 226 227 230 229 228 225 225 230 227 224 229 228
306 303 304 307 308 306 302 297 287 272 260 251 243 238 235 234 234 232 231 229 228 228 228 229 230 230 230 230 229 227 226 226 226 226 226 226 226 227 228 230 231 231 230 230 231 231 232 233 234 234 232 231 230 228 229 230 232 234 234 233 232 231 231 232 236 239 242 243 243 245 250 252 242 222 214 222 225 225 226 227 230 229 226 230 229 224 225 226
310 308 310 313 313 311 308 304 296 279 262 249 240 235 231 230 230 229 229 230 228 227 228 228 228 228 229 228 228 227 225 224 224 224 225 225 225 225 226 228 229 230 230 230 230 231 232 232 233 234 233 232 232 230 229 230 232 234 235 235 234 233 233 234 238 241 242 244 245 247 251 254 251 236 217 216 223 226 225 224 226 227 225 228 232 229 227 226
313 313 316 319 317 315 315 312 305 292 276 259 247 238 231 228 227 224 223 226 227 228 228 228 227 227 228 228 227 227 225 223 222 222 223 224 225 224 224 225 227 228 229 230 230 231 232 232 232 234 233 233 232 231 230 231 232 233 235 237 236 235 235 236 240 242 243 245 247 248 250 251 251 244 228 216 220 227 227 225 226 228 225 224 232 235 232 227
316 317 320 322 319 318 321 319 312 305 295 280 265 251 238 232 230 225 218 215 219 224 227 228 228 227 227 227 227 226 225 223 221 220 221 223 224 224 222 222 224 226 227 229 230 231 232 232 232 234 234 233 233 232 231 231 232 234 235 236 237 237 237 238 239 240 241 245 246 244 245 246 246 245 239 224 222 227 229 228 229 231 229 225 228 233 232 226
318 320 323 324 320 319 321 319 316 314 309 298 286 273 253 240 236 231 224 215 211 217 223 224 226 228 228 228 227 227 226 224 222 220 219 220 221 221 221 220 221 224 225 228 230 231 231 231 232 233 234 234 233 233 232 231 232 234 234 236 237 238 239 238 238 237 238 241 241 240 242 243 241 243 244 234 227 227 228 230 232 234 232 227 225 227 226 224
318 320 324 324 321 320 317 314 314 314 312 307 302 296 278 258 245 238 233 225 217 218 222 223 223 225 227 228 229 228 226 225 224 221 219 218 219 219 219 219 219 221 223 225 228 230 230 231 231 233 234 233 233 234 234 233 233 234 234 235 236 238 238 238 238 239 239 240 240 239 240 240 240 244 248 244 238 232 228 227 231 234 234 230 226 226 226 224
318 320 323 323 322 320 317 312 312 312 310 309 307 301 292 281 265 245 239 235 229 225 226 228 227 224 223 226 229 229 227 225 224 223 220 218 218 218 218 218 218 219 220 223 226 228 230 230 230 232 233 233 232 233 234 234 233 234 234 233 233 235 238 238 238 240 241 242 242 242 242 241 241 243 243 241 240 238 231 226 227 231 234 233 228 226 227 226
Height
5882 5881 5881 5880 5879 5879 5878 5878 5877 5876 5875 5875 5874 5874 5873 5873 5872 5872 5871 5870 5869 5868 5867 5867 5867 5867 5867 5867 5867 5867 5868 5868 5869 5870 5870 5871 5871 5872 5872 5873 5874 5875 5876 5877 5878 5879 5881 5882 5883 5883 5884 5884 5885 5886 5888 5889 5890 5891 5892 5894 5893 5893 5893 5894 5894 5894 5894 5893 5892 5893 5892 5892 5891 5890 5890 5891 5891 5892 5893 5894 5895 5895 5895 5895 5896 5897 5897 5898
5881 5880 5880 5879 5878 5878 5877 5877 5876 5875 5875 5874 5874 5873 5873 5872 5872 5871 5870 5870 5869 5868 5867 5866 5866 5865 5866 5866 5866 5866 5866 5867 5868 5868 5869 5870 5870 5871 5871 5872 5873 5874 5875 5877 5878 5878 5879 5880 5881 5882 5883 5883 5884 5886 5887 5888 5890 5891 5892 5893 5893 5892 5893 5894 5894 5894 5893 5892 5892 5892 5892 5891 5891 5890 5890 5891 5892 5893 5893 5894 5895 5895 5896 5895 5896 5896 5897 5898
5879 5879 5878 5878 5877 5876 5876 5875 5875 5874 5874 5874 5873 5873 5872 5872 5871 5870 5870 5869 5868 5868 5867 5866 5865 5864 5864 5865 5865 5865 5865 5866 5866 5867 5868 5869 5869 5870 5871 5871 5872 5873 5873 5875 5875 5876 5877 5877 5879 5880 5882 5883 5884 5885 5886 5888 5889 5890 5892 5892 5892 5892 5893 5894 5894 5893 5892 5891 5891 5891 5891 5891 5890 5890 5890 5891 5892 5893 5893 5894 5895 5895 5896 5896 5896 5896 5896 5897
5877 5877 5876 5876 5875 5875 5874 5874 5874 5873 5873 5873 5872 5872 5871 5871 5870 5870 5869 5868 5868 5867 5867 5866 5865 5864 5864 5864 5864 5864 5864 5865 5865 5865 5866 5867 5868 5869 5870 5870 5871 5871 5872 5873 5873 5874 5875 5876 5878 5879 5881 5882 5884 5885 5886 5887 5888 5890 5891 5891 5891 5891 5892 5893 5893 5893 5892 5891 5891 5890 5890 5890 5889 5889 5889 5891 5892 5894 5894 5894 5894 5895 5895 5896 5895 5896 5896 5896
5875 5875 5874 5874 5874 5873 5873 5872 5872 5872 5871 5871 5871 5871 5870 5870 5869 5869 5868 5868 5867 5867 5866 5866 5865 5864 5863 5863 5863 5863 5863 5863 5864 5864 5865 5866 5866 5868 5869 5869 5870 5870 5871 5872 5872 5873 5874 5877 5878 5879 5881 5882 5884 5885 5886 5887 5887 5889 5889 5890 5890 5891 5892 5892 5892 5892 5892 5892 5891 5890 5889 5889 5889 5889 5890 5891 5892 5893 5894 5894 5894 5895 5895 5896 5895 5895 5895 5896
5873 5873 5872 5872 5871 5871 5871 5871 5870 5870 5870 5870 5869 5869 5869 5869 5869 5868 5867 5867 5866 5866 5865 5865 5864 5863 5862 5862 5862 5862 5862 5862 5863 5863 5863 5864 5865 5866 5867 5868 5869 5869 5870 5871 5872 5873 5874 5876 5878 5880 5881 5883 5884 5884 5885 5886 5887 5888 5888 5889 5889 5890 5891 5891 5891 5891 5891 5891 5891 5890 5889 5888 5888 5889 5890 5891 5892 5893 5893 5894 5894 5894 5895 5895 5895 5895 5895 5895
5871 5870 5870 5870 5869 5869 5869 5868 5868 5868 5868 5868 5867 5868 5868 5868 5867 5867 5866 5866 5865 5865 5864 5864 5864 5863 5862 5862 5861 5861 5861 5861 5861 5862 5862 5862 5863 5864 5866 5867 5868 5869 5870 5870 5871 5873 5874 5876 5878 5879 5880 5881 5882 5882 5883 5885 5886 5887 5887 5887 5888 5888 5889 5889 5889 5890 5890 5890 5890 5890 5889 5888 5888 5888 5889 5891 5892 5893 5893 5894 5894 5894 5895 5895 5895 5895 5895 5895
5869 5868 5868 5867 5867 5867 5866 5866 5866 5866 5865 5865 5865 5866 5866 5866 5866 5865 5865 5864 5864 5863 5863 5863 5863 5862 5862 5861 5861 5860 5860 5860 5860 5861 5861 5861 5862 5863 5864 5865 5866 5868 5868 5870 5871 5872 5874 5875 5876 5877 5878 5880 5880 5880 5882 5883 5885 5886 5886 5885 5886 5887 5887 5888 5889 5889 5889 5890 5890 5890 5889 5888 5888 5887 5888 5890 5892 5893 5894 5894 5895 5895 5895 5895 5895 5895 5895 5895
5866 5866 5865 5865 5865 5864 5864 5864 5863 5863 5863 5863 5863 5864 5864 5865 5864 5864 5863 5863 5863 5862 5862 5862 5862 5861 5861 5860 5860 5859 5860 5859 5859 5860 5860 5860 5860 5861 5862 5863 5865 5866 5867 5868 5869 5870 5872 5873 5874 5875 5877 5877 5877 5879 5881 5882 5883 5884 5883 5884 5884 5885 5886 5887 5889 5889 5890 5890 5890 5890 5889 5889 5888 5887 5887 5889 5892 5893 5894 5894 5895 5895 5895 5895 5895 5895 5895 5895
5864 5863 5863 5862 5862 5862 5861 5861 5861 5861 5860 5860 5861 5862 5862 5862 5862 5862 5862 5862 5861 5861 5860 5860 5860 5860 5860 5859 5858 5859 5859 5858 5858 5859 5859 5859 5859 5859 5860 5861 5863 5864 5865 5867 5867 5869 5871 5872 5872 5872 5873 5874 5875 5878 5879 5881 5881 5881 5881 5882 5883 5884 5885 5887 5888 5889 5890 5891 5891 5890 5890 5889 5888 5888 5887 5888 5891 5893 5894 5894 5895 5895 5895 5895 5895 5895 5895 5895
5862 5861 5861 5860 5860 5859 5859 5859 5859 5858 5858 5857 5858 5859 5860 5860 5859 5859 5860 5860 5860 5859 5859 5859 5859 5859 5858 5858 5857 5858 5858 5857 5857 5858 5858 5857 5857 5858 5858 5860 5861 5862 5863 5865 5866 5868 5869 5869 5868 5869 5870 5872 5873 5876 5878 5879 5879 5879 5881 5882 5883 5884 5885 5887 5888 5889 5890 5891 5891 5891 5891 5890 5889 5889 5887 5888 5891 5893 5894 5894 5894 5895 5895 5895 5896 5895 5895 5895
5860 5859 5859 5858 5857 5857 5857 5856 5856 5855 5855 5855 5856 5857 5857 5857 5856 5857 5857 5857 5858 5858 5858 5858 5857 5857 5857 5856 5856 5858 5857 5856 5856 5856 5856 5857 5857 5857 5857 5858 5859 5860 5861 5863 5864 5865 5866 5866 5866 5868 5870 5871 5872 5874 5876 5876 5876 5877 5880 5881 5883 5884 5885 5887 5887 5888 5890 5891 5891 5892 5891 5891 5890 5890 5888 5887 5890 5892 5894 5894 5894 5895 5895 5895 5895 5895 5895 5895
5858 5857 5856 5856 5855 5855 5854 5854 5854 5853 5852 5852 5853 5855 5855 5854 5854 5854 5855 5855 5856 5856 5856 5856 5856 5856 5855 5854 5855 5857 5855 5855 5854 5854 5855 5856 5856 5856 5856 5857 5857 5858 5860 5861 5862 5862 5863 5864 5865 5868 5869 5869 5870 5872 5874 5874 5874 5876 5878 5880 5881 5883 5885 5886 5886 5887 5889 5890 5891 5891 5891 5891 5890 5889 5888 5888 5889 5892 5893 5894 5894 5894 5895 5895 5895 5895 5895 5894
5855 5855 5854 5853 5853 5852 5852 5852 5851 5850 5849 5849 5851 5851 5851 5851 5851 5852 5852 5852 5853 5853 5853 5854 5854 5854 5853 5853 5854 5855 5854 5853 5852 5853 5854 5855 5855 5855 5855 5855 5856 5857 5858 5858 5859 5860 5861 5862 5863 5865 5865 5867 5869 5870 5871 5872 5873 5874 5876 5878 5880 5882 5884 5884 5885 5886 5887 5888 5890 5891 5890 5890 5890 5889 5888 5888 5889 5891 5893 5894 5894 5894 5895 5895 5895 5895 5895 5894
5852 5852 5851 5851 5850 5850 5849 5849 5849 5847 5847 5847 5848 5848 5848 5848 5848 5849 5849 5850 5850 5850 5851 5851 5851 5852 5851 5851 5852 5853 5852 5851 5851 5852 5854 5853 5853 5853 5854 5854 5855 5855 5855 5856 5857 5858 5859 5860 5861 5863 5864 5866 5866 5867 5869 5871 5871 5872 5874 5877 5879 5881 5882 5883 5883 5885 5886 5886 5889 5890 5889 5889 5889 5889 5889 5888 5888 5890 5892 5893 5894 5894 5894 5895 5895 5895 5894 5894
5849 5849 5848 5848 5847 5846 5846 5846 5846 5845 5844 5844 5845 5845 5845 5845 5845 5846 5846 5847 5847 5848 5848 5848 5848 5849 5849 5848 5849 5850 5850 5849 5850 5852 5852 5851 5851 5851 5852 5853 5853 5854 5854 5854 5855 5856 5857 5858 5860 5862 5862 5864 5864 5865 5867 5868 5869 5870 5872 5875 5878 5880 5880 5881 5882 5884 5884 5885 5888 5888 5888 5888 5888 5888 5889 5888 5888 5889 5891 5893 5893 5893 5894 5895 5895 5895 5894 5894
5845 5845 5844 5844 5843 5843 5843 5843 5843 5842 5841 5841 5842 5842 5842 5842 5842 5843 5843 5844 5845 5845 5845 5845 5845 5846 5846 5845 5846 5848 5848 5848 5848 5849 5849 5849 5849 5850 5851 5851 5851 5852 5852 5853 5854 5854 5855 5856 5858 5860 5861 5861 5862 5864 5865 5865 5867 5869 5871 5874 5877 5878 5879 5880 5881 5882 5882 5883 5886 5886 5886 5886 5886 5887 5888 5887 5887 5888 5890 5892 5893 5893 5894 5895 5895 5895 5895 5894
5841 5841 5840 5839 5839 5838 5839 5839 5839 5839 5838 5838 5839 5838 5838 5838 5839 5839 5840 5841 5841 5841 5842 5842 5842 5843 5843 5842 5843 5845 5845 5846 5846 5846 5846 5846 5848 5849 5849 5849 5849 5850 5850 5852 5853 5853 5854 5855 5856 5858 5858 5859 5861 5862 5863 5865 5867 5869 5870 5873 5875 5876 5877 5879 5880 5880 5880 5881 5884 5885 5884 5885 5885 5885 5886 5886 5887 5887 5888 5890 5892 5893 5893 5894 5895 5895 5895 5894
5837 5836 5836 5835 5834 5834 5834 5835 5835 5835 5834 5834 5835 5836 5835 5835 5835 5836 5837 5838 5838 5838 5838 5840 5840 5841 5841 5839 5840 5842 5843 5843 5843 5844 5844 5844 5845 5847 5847 5847 5848 5848 5849 5851 5851 5852 5853 5853 5853 5855 5857 5858 5861 5862 5864 5866 5867 5868 5869 5870 5872 5874 5876 5878 5879 5879 5878 5879 5882 5883 5882 5882 5882 5883 5884 5885 5885 5886 5887 5888 5890 5892 5892 5893 5894 5895 5894 5894
5832 5832 5831 5830 5829 5829 5829 5830 5830 5831 5830 5830 5831 5832 5831 5831 5831 5832 5834 5834 5834 5835 5835 5836 5837 5837 5837 5836 5836 5838 5840 5841 5841 5842 5842 5841 5842 5844 5845 5845 5846 5847 5848 5849 5849 5850 5850 5851 5852 5854 5856 5858 5860 5862 5863 5864 5866 5866 5867 5868 5870 5872 5874 5877 5877 5877 5876 5877 5880 5881 5880 5880 5880 5881 5881 5882 5883 5884 5885 5886 5888 5890 5892 5893 5893 5894 5894 5893
5826 5826 5826 5825 5824 5824 5824 5824 5825 5825 5826 5825 5826 5826 5827 5827 5827 5828 5830 5830 5831 5831 5832 5833 5833 5835 5834 5832 5833 5834 5835 5838 5839 5839 5839 5839 5839 5841 5843 5843 5844 5845 5846 5846 5846 5847 5848 5850 5852 5853 5855 5856 5857 5859 5860 5862 5864 5864 5865 5866 5868 5870 5873 5875 5875 5875 5875 5875 5878 5878 5878 5879 5879 5879 5879 5879 5881 5882 5883 5885 5887 5889 5891 5892 5893 5894 5893 5893
5821 5820 5820 5820 5819 5818 5818 5819 5819 5820 5821 5821 5821 5821 5822 5823 5822 5823 5825 5827 5827 5826 5829 5830 5829 5832 5831 5827 5828 5830 5831 5836 5837 5836 5837 5837 5837 5839 5840 5841 5842 5843 5842 5842 5843 5845 5847 5850 5851 5851 5852 5853 5854 5856 5858 5859 5861 5862 5863 5864 5866 5869 5871 5872 5873 5874 5872 5872 5874 5875 5875 5876 5876 5876 5877 5877 5878 5879 5880 5882 5885 5887 5889 5891 5892 5893 5893 5892
5814 5814 5814 5813 5813 5813 5812 5813 5814 5815 5815 5815 5815 5815 5816 5817 5817 5818 5819 5823 5824 5822 5823 5826 5826 5829 5828 5823 5822 5825 5830 5834 5832 5832 5834 5835 5835 5835 5836 5838 5840 5840 5839 5840 5842 5844 5846 5848 5848 5849 5849 5850 5851 5853 5854 5856 5857 5859 5861 5862 5865 5868 5869 5870 5870 5870 5869 5869 5871 5871 5872 5873 5873 5874 5876 5877 5877 5877 5878 5879 5881 5884 5887 5890 5891 5892 5892 5892
5807 5807 5807 5807 5807 5806 5806 5807 5808 5809 5809 5808 5809 5810 5810 5811 5811 5812 5812 5816 5821 5820 5818 5819 5822 5825 5824 5820 5817 5821 5828 5830 5828 5829 5831 5832 5833 5832 5833 5835 5836 5836 5837 5839 5840 5841 5843 5845 5845 5846 5847 5847 5848 5849 5851 5852 5854 5857 5858 5860 5864 5866 5866 5867 5867 5867 5866 5866 5868 5868 5868 5869 5871 5873 5875 5876 5876 5876 5877 5878 5878 5881 5884 5888 5890 5890 5891 5891
5800 5800 5800 5800 5800 5800 5800 5800 5801 5802 5802 5802 5802 5804 5804 5804 5805 5806 5807 5808 5814 5819 5815 5812 5815 5819 5820 5817 5815 5818 5823 5826 5825 5825 5826 5828 5829 5829 5830 5830 5831 5833 5835 5836 5837 5838 5840 5842 5843 5844 5844 5845 5846 5846 5848 5850 5852 5854 5856 5859 5863 5863 5863 5865 5865 5864 5863 5864 5866 5866 5865 5866 5869 5871 5872 5873 5874 5875 5876 5877 5877 5878 5882 5885 5888 5889 5890 5890
5792 5792 5792 5792 5793 5794 5793 5793 5794 5794 5795 5795 5796 5797 5798 5798 5798 5799 5801 5801 5806 5813 5813 5809 5808 5811 5814 5814 5813 5814 5816 5822 5823 5818 5820 5825 5825 5824 5825 5826 5829 5831 5832 5833 5833 5835 5837 5839 5839 5840 5842 5843 5844 5846 5847 5848 5850 5852 5855 5858 5858 5859 5860 5862 5863 5861 5860 5862 5864 5863 5861 5862 5864 5867 5870 5871 5872 5874 5874 5875 5875 5876 5879 5883 5886 5888 5888 5889
5784 5784 5784 5784 5785 5787 5786 5787 5787 5786 5787 5787 5789 5790 5791 5792 5792 5793 5794 5794 5797 5804 5808 5806 5804 5805 5807 5808 5810 5810 5812 5818 5817 5812 5816 5822 5820 5820 5821 5823 5826 5828 5829 5829 5830 5834 5836 5836 5836 5838 5840 5841 5843 5845 5847 5847 5849 5851 5854 5854 5854 5857 5858 5859 5859 5858 5857 5859 5859 5859 5859 5858 5860 5865 5867 5868 5870 5872 5872 5873 5873 5874 5877 5881 5884 5886 5887 5888
5775 5775 5776 5775 5777 5779 5779 5780 5780 5779 5779 5779 5781 5783 5784 5785 5786 5787 5788 5788 5790 5795 5800 5801 5799 5799 5801 5802 5804 5805 5807 5812 5812 5808 5813 5816 5815 5815 5818 5821 5824 5825 5825 5825 5829 5833 5833 5832 5834 5835 5836 5838 5841 5844 5845 5846 5848 5849 5850 5850 5851 5854 5855 5855 5855 5855 5856 5855 5853 5856 5858 5855 5856 5862 5865 5865 5867 5870 5873 5873 5872 5873 5875 5878 5882 5884 5886 5887
5766 5766 5767 5767 5768 5770 5771 5772 5773 5772 5771 5771 5772 5774 5776 5777 5779 5780 5780 5782 5784 5787 5792 5795 5795 5794 5795 5797 5799 5799 5802 5806 5806 5805 5807 5810 5811 5812 5814 5818 5820 5819 5820 5822 5826 5828 5828 5829 5830 5831 5832 5834 5838 5840 5841 5844 5845 5846 5847 5847 5848 5849 5851 5852 5851 5852 5853 5848 5847 5854 5855 5852 5853 5858 5861 5862 5865 5870 5874 5874 5872 5871 5872 5876 5880 5882 5884 5885
5758 5758 5757 5758 5760 5761 5761 5763 5764 5764 5764 5763 5764 5766 5767 5768 5771 5771 5772 5776 5779 5780 5784 5787 5789 5789 5789 5791 5793 5794 5796 5799 5801 5801 5802 5805 5807 5807 5810 5813 5813 5813 5815 5818 5822 5824 5824 5825 5825 5828 5830 5832 5835 5836 5838 5840 5841 5841 5843 5843 5843 5844 5846 5847 5847 5849 5848 5841 5843 5852 5853 5850 5850 5853 5857 5860 5864 5869 5872 5872 5870 5869 5870 5873 5877 5880 5883 5884
5749 5749 5748 5749 5751 5752 5753 5753 5754 5754 5755 5755 5756 5756 5758 5759 5761 5762 5766 5772 5773 5773 5775 5778 5781 5783 5782 5784 5787 5789 5791 5793 5795 5796 5797 5799 5801 5802 5805 5807 5807 5809 5811 5813 5817 5820 5820 5821 5823 5826 5829 5830 5831 5833 5835 5837 5836 5837 5838 5839 5839 5840 5841 5842 5842 5845 5841 5837 5843 5850 5852 5850 5848 5850 5856 5860 5864 5867 5869 5870 5870 5868 5869 5871 5874 5878 5880 5882
5739 5739 5739 5740 5742 5742 5743 5744 5745 5744 5745 5746 5747 5748 5749 5749 5751 5755 5761 5766 5765 5765 5767 5769 5773 5776 5777 5778 5780 5783 5786 5787 5789 5791 5791 5794 5796 5798 5801 5804 5805 5806 5808 5812 5816 5817 5817 5819 5821 5823 5825 5827 5828 5830 5832 5833 5833 5834 5835 5835 5835 5836 5837 5836 5838 5839 5838 5837 5842 5848 5850 5847 5846 5850 5855 5858 5862 5864 5867 5869 5869 5868 5868 5869 5871 5874 5877 5879
5729 5729 5729 5730 5731 5731 5732 5734 5736 5736 5735 5736 5737 5739 5739 5739 5742 5749 5754 5755 5755 5758 5759 5761 5765 5768 5770 5772 5772 5775 5780 5782 5783 5784 5785 5788 5791 5793 5796 5798 5800 5801 5805 5809 5811 5811 5814 5816 5817 5819 5822 5824 5826 5828 5829 5830 5831 5832 5833 5832 5832 5833 5832 5833 5835 5836 5837 5838 5840 5845 5847 5843 5844 5850 5854 5856 5860 5862 5865 5867 5868 5869 5868 5868 5869 5872 5874 5876
5717 5717 5718 5719 5720 5721 5722 5723 5724 5726 5726 5725 5726 5728 5729 5731 5737 5742 5743 5744 5747 5750 5752 5753 5756 5759 5762 5764 5766 5769 5772 5774 5776 5778 5779 5781 5784 5787 5789 5792 5794 5796 5800 5803 5804 5805 5808 5809 5813 5817 5820 5822 5823 5826 5828 5827 5828 5829 5831 5831 5830 5831 5830 5832 5834 5835 5836 5837 5837 5840 5841 5840 5843 5849 5852 5855 5858 5860 5863 5865 5867 5868 5869 5868 5869 5870 5871 5873
5705 5704 5706 5708 5709 5710 5710 5710 5711 5713 5714 5715 5715 5716 5720 5726 5729 5730 5731 5734 5738 5741 5744 5746 5747 5750 5753 5756 5760 5763 5764 5767 5771 5773 5774 5775 5778 5782 5785 5788 5790 5792 5795 5797 5799 5802 5803 5806 5811 5813 5815 5816 5819 5822 5823 5822 5823 5825 5826 5826 5828 5831 5830 5830 5831 5833 5834 5834 5833 5835 5837 5840 5843 5845 5848 5852 5854 5857 5860 5862 5864 5866 5867 5868 5868 5869 5870 5871
5692 5690 5692 5695 5697 5697 5697 5698 5699 5699 5701 5704 5704 5706 5713 5718 5717 5717 5721 5725 5728 5731 5734 5737 5738 5740 5743 5747 5752 5755 5757 5760 5763 5766 5768 5769 5772 5776 5780 5783 5785 5787 5789 5792 5795 5797 5799 5804 5808 5807 5808 5813 5815 5817 5816 5816 5819 5819 5819 5824 5829 5830 5828 5827 5828 5831 5832 5829 5830 5832 5834 5838 5840 5841 5845 5848 5851 5854 5857 5859 5862 5863 5865 5866 5867 5868 5869 5871
5678 5676 5677 5681 5684 5683 5683 5684 5686 5686 5688 5690 5693 5698 5703 5705 5705 5707 5710 5713 5717 5720 5724 5727 5730 5732 5734 5737 5742 5747 5750 5752 5755 5758 5761 5763 5764 5767 5772 5774 5776 5778 5781 5783 5787 5790 5792 5799 5802 5801 5804 5809 5810 5810 5810 5811 5813 5813 5817 5825 5826 5823 5822 5822 5823 5826 5827 5824 5826 5830 5832 5834 5837 5839 5843 5846 5849 5852 5854 5856 5859 5860 5862 5864 5866 5868 5869 5870
5661 5660 5661 5666 5668 5668 5668 5669 5671 5673 5674 5677 5682 5688 5690 5691 5695 5697 5698 5700 5705 5709 5713 5716 5720 5723 5725 5728 5732 5737 5742 5745 5747 5750 5753 5755 5756 5759 5764 5766 5768 5771 5773 5775 5779 5783 5786 5790 5794 5796 5800 5803 5803 5802 5802 5804 5808 5811 5817 5820 5817 5815 5818 5818 5818 5821 5823 5822 5825 5829 5831 5832 5835 5838 5842 5845 5847 5849 5851 5853 5855 5857 5859 5861 5864 5866 5867 5869
5644 5642 5643 5648 5651 5650 5652 5654 5656 5659 5661 5664 5670 5673 5675 5679 5683 5684 5685 5688 5692 5697 5702 5705 5709 5713 5716 5719 5722 5727 5733 5737 5740 5742 5743 5746 5748 5752 5756 5759 5763 5765 5767 5771 5774 5778 5781 5784 5788 5792 5795 5796 5794 5793 5795 5801 5805 5809 5812 5812 5810 5812 5815 5815 5815 5818 5821 5822 5824 5828 5829 5830 5833 5837 5840 5842 5844 5846 5848 5850 5852 5854 5856 5858 5861 5863 5865 5866
5628 5626 5625 5629 5631 5631 5634 5638 5641 5644 5647 5650 5654 5658 5662 5666 5669 5671 5672 5677 5681 5685 5689 5693 5698 5703 5706 5710 5713 5717 5723 5728 5731 5733 5734 5737 5740 5744 5748 5752 5756 5759 5762 5766 5769 5773 5777 5779 5784 5789 5789 5788 5786 5786 5792 5800 5803 5805 5806 5808 5809 5810 5811 5812 5812 5814 5818 5820 5822 5825 5827 5828 5833 5836 5837 5839 5841 5843 5844 5846 5848 5850 5853 5855 5857 5859 5862 5863
5614 5611 5610 5612 5612 5613 5617 5621 5625 5628 5631 5635 5639 5643 5649 5652 5656 5658 5660 5665 5670 5673 5676 5682 5687 5691 5696 5700 5703 5708 5713 5718 5722 5723 5725 5729 5732 5736 5740 5744 5749 5753 5756 5759 5762 5767 5771 5771 5776 5783 5783 5781 5782 5786 5793 5798 5799 5801 5802 5805 5807 5808 5808 5808 5808 5812 5816 5818 5820 5821 5822 5827 5833 5834 5834 5836 5837 5839 5841 5842 5844 5847 5849 5851 5854 5856 5858 5860
5604 5600 5596 5597 5597 5597 5601 5604 5608 5612 5615 5618 5623 5628 5633 5638 5642 5646 5649 5653 5657 5660 5664 5669 5673 5679 5685 5689 5693 5698 5703 5708 5712 5714 5717 5721 5724 5727 5732 5737 5741 5745 5748 5752 5755 5760 5763 5764 5769 5776 5778 5778 5781 5785 5789 5792 5794 5795 5795 5800 5803 5802 5802 5803 5807 5813 5815 5814 5817 5818 5817 5823 5830 5832 5833 5834 5835 5836 5838 5839 5841 5843 5845 5847 5850 5852 5854 5857
5597 5592 5586 5585 5585 5585 5588 5591 5593 5596 5600 5603 5608 5613 5618 5622 5628 5633 5637 5640 5643 5647 5653 5657 5661 5667 5673 5677 5683 5689 5693 5697 5701 5704 5708 5712 5716 5719 5723 5728 5733 5737 5741 5745 5748 5752 5755 5757 5762 5769 5773 5775 5778 5781 5782 5784 5787 5786 5787 5793 5795 5795 5798 5802 5807 5811 5809 5808 5813 5814 5813 5820 5828 5830 5831 5832 5833 5834 5836 5837 5839 5840 5842 5844 5846 5848 5851 5854
5590 5587 5581 5577 5576 5574 5576 5579 5581 5583 5585 5589 5594 5598 5602 5607 5612 5619 5623 5626 5630 5636 5641 5643 5648 5654 5658 5665 5673 5679 5683 5687 5691 5695 5699 5703 5707 5711 5715 5719 5724 5729 5733 5737 5741 5745 5747 5750 5754 5760 5765 5768 5770 5772 5773 5776 5778 5778 5781 5787 5790 5793 5798 5799 5802 5804 5801 5802 5808 5808 5808 5816 5826 5828 5829 5830 5831 5832 5834 5835 5837 5838 5839 5841 5843 5845 5847 5850
5584 5582 5578 5573 5570 5568 5567 5568 5571 5572 5574 5577 5581 5585 5589 5593 5598 5605 5609 5612 5618 5624 5628 5630 5634 5640 5646 5654 5662 5668 5673 5678 5681 5685 5690 5694 5699 5703 5707 5710 5714 5720 5725 5729 5733 5737 5739 5743 5746 5751 5756 5760 5762 5765 5767 5769 5772 5774 5778 5783 5787 5791 5793 5795 5798 5797 5794 5799 5804 5803 5806 5814 5822 5825 5826 5828 5829 5830 5832 5833 5834 5836 5837 5838 5840 5842 5844 5847
5578 5577 5575 5571 5567 5564 5561 5561 5563 5564 5564 5567 5570 5573 5577 5582 5586 5591 5596 5600 5606 5612 5614 5617 5622 5628 5635 5642 5648 5655 5662 5668 5671 5676 5680 5684 5690 5694 5698 5702 5706 5711 5716 5720 5725 5728 5732 5736 5738 5742 5749 5753 5756 5760 5763 5766 5768 5769 5772 5777 5782 5786 5789 5792 5792 5788 5791 5797 5799 5801 5807 5812 5817 5823 5825 5825 5826 5828 5829 5830 5832 5833 5835 5836 5837 5839 5841 5843
5573 5572 5571 5569 5565 5561 5558 5557 5557 5557 5556 5559 5562 5563 5567 5572 5575 5579 5584 5589 5595 5600 5602 5605 5611 5616 5622 5628 5635 5642 5651 5657 5662 5666 5669 5673 5679 5685 5690 5695 5698 5702 5707 5712 5716 5720 5724 5728 5730 5734 5740 5746 5751 5754 5757 5759 5762 5764 5767 5772 5777 5781 5785 5786 5784 5785 5791 5793 5793 5801 5808 5808 5811 5819 5822 5823 5824 5825 5827 5828 5829 5830 5832 5833 5834 5836 5837 5840
5570 5568 5566 5565 5563 5560 5557 5555 5554 5553 5552 5554 5556 5557 5560 5563 5566 5571 5576 5579 5584 5588 5591 5596 5601 5605 5610 5616 5623 5630 5637 5644 5650 5655 5658 5663 5670 5677 5682 5686 5690 5694 5698 5703 5707 5712 5716 5720 5722 5726 5732 5739 5744 5748 5751 5754 5757 5759 5763 5768 5772 5776 5780 5781 5781 5785 5789 5788 5791 5803 5806 5803 5807 5813 5818 5822 5823 5823 5824 5825 5825 5827 5829 5830 5832 5833 5835 5837
5567 5565 5563 5561 5559 5558 5556 5554 5553 5551 5551 5551 5552 5553 5554 5557 5560 5565 5569 5572 5576 5578 5582 5587 5591 5595 5600 5604 5610 5618 5624 5630 5637 5643 5650 5656 5662 5668 5673 5677 5682 5687 5691 5694 5699 5704 5708 5712 5715 5719 5725 5731 5736 5740 5745 5748 5751 5754 5759 5762 5766 5771 5775 5777 5779 5782 5784 5784 5790 5799 5798 5797 5803 5809 5813 5818 5819 5819 5821 5821 5821 5823 5825 5827 5828 5830 5832 5834
5565 5563 5562 5560 5557 5556 5555 5554 5552 5551 5550 5549 5549 5549 5551 5553 5556 5559 5562 5567 5570 5571 5574 5579 5582 5585 5589 5593 5599 5606 5610 5616 5625 5634 5642 5648 5652 5658 5663 5669 5674 5679 5682 5686 5690 5695 5700 5704 5707 5712 5717 5722 5728 5732 5737 5741 5745 5748 5753 5758 5762 5765 5769 5772 5774 5776 5778 5779 5786 5792 5791 5792 5801 5806 5809 5813 5815 5816 5817 5817 5818 5820 5821 5823 5825 5826 5829 5830
5563 5561 5561 5559 5556 5555 5554 5552 5552 5551 5549 5548 5548 5548 5549 5550 5552 5554 5556 5560 5563 5565 5567 5570 5574 5577 5580 5585 5589 5594 5598 5606 5615 5624 5631 5637 5642 5648 5653 5659 5665 5669 5674 5678 5681 5686 5691 5695 5701 5704 5708 5715 5721 5723 5728 5735 5739 5743 5749 5754 5757 5759 5762 5766 5768 5771 5773 5776 5782 5785 5784 5789 5800 5805 5806 5809 5810 5812 5813 5815 5816 5816 5817 5819 5820 5822 5825 5827
5561 5560 5559 5557 5556 5554 5553 5551 5551 5550 5549 5548 5547 5547 5547 5547 5549 5551 5552 5554 5558 5559 5561 5563 5566 5570 5574 5578 5580 5582 5588 5597 5605 5611 5618 5625 5632 5637 5643 5649 5654 5660 5666 5670 5673 5678 5682 5687 5693 5696 5699 5707 5713 5715 5721 5727 5731 5738 5745 5748 5750 5753 5757 5760 5763 5766 5769 5773 5777 5778 5781 5791 5799 5801 5800 5803 5805 5807 5809 5811 5812 5813 5813 5814 5816 5819 5821 5823